Terminal Aerodrome Forecast
Issued by NWS

Home | Current Version | Previous Version | Text Only | Print | Product List | Glossary On
Versions: 1 2 3 4 5 6 7 8 9 10 11 12 13 14 15 16 17 18 19 20
000
FTUS45 KTFX 281700 RRA
TAFBZN
TAF
KBZN 281741Z 2818/2918 23013G20KT P6SM BKN080 WS020/23025KT
     FM290200 22008KT P6SM SCT080 BKN150 WS020/23030KT
     FM291200 23010KT P6SM VCSH BKN090 WS020/24035KT=

USA.gov is the U.S. government's official web portal to all federal, state and local government web resources and services.